OSCAR 7 (AO-7) 1 07530U 74089B 26037.99182642 -.00000047 00000+0 -27752-5 0 9992 2 07530 101.9972 49.8523 0012258 20.9760 36.4298 12.53695622344205 PHASE 3B (AO-10) 1 14129U 83058B 26036.76544083 .00000196 00000+0 00000+0 0 9999 2 14129 25.9610 241.7283 6056240 79.1046 339.8337 2.05870291292787 UOSAT 2 (UO-11) 1 14781U 84021B 26038.26128032 .00002604 00000+0 27306-3 0 9991 2 14781 97.7900 5.4471 0006049 250.4378 109.6187 14.90392275237774 LUSAT (LO-19) 1 20442U 90005G 26037.99163419 .00000209 00000+0 91526-4 0 9993 2 20442 98.8950 56.1487 0010841 224.2118 135.8201 14.34074785883730 EYESAT A (AO-27) 1 22825U 93061C 26038.14957770 .00000173 00000+0 82887-4 0 9994 2 22825 98.7048 105.5263 0009356 119.1133 241.0987 14.30902647688404 ITAMSAT (IO-26) 1 22826U 93061D 26038.16757285 .00000201 00000+0 92806-4 0 9990 2 22826 98.6996 105.4489 0010006 104.6222 255.6071 14.31325887688712 RADIO ROSTO (RS15) 1 23439U 94085A 26038.27517332 .00000030 00000+0 20519-2 0 9997 2 23439 64.8164 153.3209 0151546 27.8226 333.0702 11.27583726281252 JAS-2 (FO-29) 1 24278U 96046B 26038.18652100 -.00000016 00000+0 17178-4 0 9995 2 24278 98.5421 264.7265 0350832 73.7757 290.1680 13.53266643455585 TECHSAT 1B (GO-32) 1 25397U 98043D 26037.90281677 .00000136 00000+0 79038-4 0 9998 2 25397 98.9987 27.4306 0000773 178.6118 181.5062 14.24397158432780 ISS (ZARYA) 1 25544U 98067A 26037.98653627 .00011965 00000+0 22894-3 0 9993 2 25544 51.6315 224.1327 0011142 71.6186 288.6013 15.48450046551570 PCSAT (NO-44) 1 26931U 01043C 26037.96494660 .00000247 00000+0 12331-3 0 9996 2 26931 67.0487 221.0723 0007041 266.3534 93.6763 14.31894232271802 SAUDISAT 1C (SO-50) 1 27607U 02058C 26038.33361792 .00002593 00000+0 32395-3 0 9993 2 27607 64.5529 170.6446 0074409 286.1799 73.1127 14.82661015245207 CUTE-1 (CO-55) 1 27844U 03031E 26038.00414119 .00000481 00000+0 22742-3 0 9993 2 27844 98.6775 48.1865 0009237 197.5390 162.5471 14.24239877173145 CUBESAT XI-IV (CO-57) 1 27848U 03031J 26037.99814236 .00000403 00000+0 19627-3 0 9990 2 27848 98.6804 47.9978 0008794 216.6284 143.4294 14.23538936172851 MOZHAETS 4 (RS22) 1 27939U 03042A 26038.30461983 .00001848 00000+0 29467-3 0 9993 2 27939 98.3401 219.0267 0010732 325.9155 158.1214 14.73165250196425 CUBESAT XI-V 1 28895U 05043F 26037.99604190 .00002872 00000+0 46336-3 0 9993 2 28895 98.2780 191.0538 0013233 257.6507 102.3219 14.72179849 82593 CUTE-1.7+APD II (CO-65) 1 32785U 08021C 26038.19316203 .00008460 00000+0 55432-3 0 9999 2 32785 97.8168 17.1415 0011273 106.9868 253.2595 15.07921009965596 SEEDS II (CO-66) 1 32791U 08021J 26038.21529728 .00027495 00000+0 10148-2 0 9990 2 32791 97.7495 30.4199 0005326 67.8376 292.3427 15.27724830967419 YUBILEINY (RS30) 1 32953U 08025A 26038.28696661 -.00000104 00000+0 -81917-3 0 9995 2 32953 82.4988 76.2466 0018546 232.6182 127.3210 12.43174311803556 KKS-1 (KISEKI) 1 33499U 09002H 26038.30017810 .00002616 00000+0 33092-3 0 9992 2 33499 98.1186 318.7368 0007990 2.5114 357.6138 14.82706537916942 SWISSCUBE 1 35932U 09051B 26038.16303157 .00001836 00000+0 37463-3 0 9995 2 35932 98.4127 303.7606 0005552 257.1862 102.8718 14.62170900870156 BEESAT-1 1 35933U 09051C 26038.31215488 .00001521 00000+0 31686-3 0 9994 2 35933 98.4057 303.8134 0004048 274.2816 85.7922 14.61458567870214 ITUPSAT1 1 35935U 09051E 26038.19015382 .00001409 00000+0 30248-3 0 9991 2 35935 98.4146 303.0142 0006313 286.2777 73.7728 14.60199186869769 XIWANG-1 (HOPE-1) 1 36122U 09072B 26038.28524017 .00000201 00000+0 64211-3 0 9999 2 36122 100.3870 354.2923 0007515 166.0094 194.1228 13.16436255775919 O/OREOS (USA 219) 1 37224U 10062C 26038.31608737 .00004279 00000+0 41517-3 0 9993 2 37224 71.9722 14.3792 0016659 308.3446 51.6226 14.93087908 97253 JUGNU 1 37839U 11058B 26038.22919904 .00000547 00000+0 14614-3 0 9994 2 37839 19.9623 17.9429 0018787 81.5092 44.8527 14.13727388740612 SRMSAT 1 37841U 11058D 26037.29582517 .00000512 00000+0 13390-3 0 9991 2 37841 19.9712 131.7097 0011564 203.5607 189.1597 14.11535751739307 STRAND-1 1 39090U 13009E 26038.06825293 .00000531 00000+0 19319-3 0 9992 2 39090 98.3856 221.5259 0007591 258.6180 101.4154 14.37066958678376 ZACUBE-1 (TSHEPISOSAT) 1 39417U 13066B 26038.31406810 .00009461 00000+0 75305-3 0 9994 2 39417 97.8175 359.9947 0040848 324.9467 34.9068 14.99948505661252 GOMX-1 1 39430U 13066Q 26038.24195789 .00002141 00000+0 32838-3 0 9993 2 39430 97.6575 246.8437 0130514 134.3550 226.8440 14.68963805650837 CUBEBUG-2 (LO-74) 1 39440U 13066AA 26038.26543162 .00006902 00000+0 65258-3 0 9999 2 39440 97.8774 346.9105 0060851 97.7254 263.0881 14.92587710657602 FUNCUBE-1 (AO-73) 1 39444U 13066AE 26038.17612027 .00013058 00000+0 85589-3 0 9999 2 39444 97.8151 7.2229 0035839 287.0470 72.6832 15.07302567660067 UWE-3 1 39446U 13066AG 26038.29610547 .00008527 00000+0 74916-3 0 9996 2 39446 97.8562 353.7310 0051553 34.5650 325.8904 14.95785818658151 UNISAT-6 1 40012U 14033C 26038.26835672 .00005323 00000+0 58307-3 0 9994 2 40012 97.7674 193.4783 0046537 135.8240 224.6708 14.87384634626845 DUCHIFAT-1 1 40021U 14033M 26038.18767145 .00058869 00000+0 11894-2 0 9996 2 40021 98.0698 81.1054 0006209 171.4869 188.6485 15.46271792635559 QB50P1 1 40025U 14033R 26037.95519644 .00014026 00000+0 73643-3 0 9991 2 40025 98.1000 40.1836 0007822 321.5100 38.5572 15.15825625633286 LILACSAT-2 1 40908U 15049K 26038.31585973 .00022064 00000+0 43971-3 0 9990 2 40908 97.4855 70.5060 0007857 18.5669 341.5866 15.46872924575649 FOX-1A (AO-85) 1 40967U 15058D 26038.19229359 .00004373 00000+0 39901-3 0 9995 2 40967 64.7771 322.7080 0130329 107.9853 253.5514 14.90110179 94194 CAS-2T & KS-1Q 1 41847U 16066G 26038.22660256 .00002633 00000+0 37721-3 0 9997 2 41847 98.3943 115.4047 0343394 163.6156 197.6473 14.44359200486038 RADFXSAT (FOX-1B) 1 43017U 17073E 26038.12304956 .00012350 00000+0 56222-3 0 9992 2 43017 97.4896 268.0715 0158803 57.1252 304.5148 15.10178991445747 DIWATA-2B 1 43678U 18084H 26038.30100803 .00001339 00000+0 11339-3 0 9998 2 43678 98.1067 229.0890 0008477 221.8519 138.2056 14.99808874396747 ES'HAIL 2 1 43700U 18090A 26038.27277498 .00000148 00000+0 00000+0 0 9998 2 43700 0.0146 113.7784 0002375 250.5456 257.0078 1.00271501 26376 FOX-1CLIFF (AO-95) 1 43770U 18099N 26038.11132890 .00016255 00000+0 68072-3 0 9996 2 43770 97.4570 99.0108 0010547 87.4683 272.7761 15.23573092393391 ITASAT 1 43786U 18099AE 26038.11063133 .00009698 00000+0 49043-3 0 9996 2 43786 97.4229 92.2601 0014539 87.1333 273.1564 15.17154934393171 JY1SAT (JO-97) 1 43803U 18099AX 26038.20293765 .00023884 00000+0 84519-3 0 9992 2 43803 97.4318 100.8958 0006407 23.8630 336.2905 15.29128761393737 UWE-4 1 43880U 18111E 26038.30901121 .00037751 00000+0 10082-2 0 9996 2 43880 97.5859 321.5465 0011904 75.5025 284.7539 15.37935778390761 TIANYAN 01 1 44881U 19093C 26038.32328844 .00001140 00000+0 13542-3 0 9993 2 44881 97.7668 113.6719 0014212 148.8785 211.3276 14.86269656332125 RS-44 & BREEZE-KM R/B 1 44909U 19096E 26038.14831704 .00000010 00000+0 -14272-4 0 9999 2 44909 82.5173 66.1194 0218675 88.4565 274.1571 12.79746880285718 SALSAT 1 46495U 20068K 26038.28426372 .00012507 00000+0 46613-3 0 9994 2 46495 97.8838 33.6722 0011611 46.0409 314.1785 15.27539060295518 XW-3 (CAS-9) 1 50466U 21131B 26038.30399255 .00000929 00000+0 30129-3 0 9991 2 50466 98.4992 131.4303 0005083 122.0891 238.0792 14.41210260216403 GREENCUBE (IO-117) 1 53109U 22080E 26038.22787311 -.00000003 00000+0 00000+0 0 9992 2 53109 70.1651 343.4382 0009154 317.3423 42.6526 6.42583129 83713 UMKA 1 (RS40S) 1 57172U 23091G 26038.27671033 .00008556 00000+0 40970-3 0 9991 2 57172 97.5242 97.5057 0012577 206.9733 153.0849 15.19128646144279 CUBESX-HSE 3 (RS42S) 1 57178U 23091N 26038.31070389 .00018830 00000+0 69723-3 0 9992 2 57178 97.5271 102.4846 0011524 185.9533 174.1571 15.27646462144573 MONITOR-3 (RS58S) 1 57180U 23091Q 26038.27344748 .00014596 00000+0 58688-3 0 9996 2 57180 97.5264 100.9230 0012232 191.4712 168.6248 15.24953693144478 MONITOR-4 (RS57S) 1 57182U 23091S 26038.26022426 .00017999 00000+0 72093-3 0 9999 2 57182 97.5257 100.8725 0012221 191.9962 168.0987 15.25035476144475 MONITOR-2 (RS39S) 1 57184U 23091U 26038.27913145 .00007195 00000+0 36146-3 0 9995 2 57184 97.5267 97.4036 0011028 197.6613 162.4238 15.17529580144241 SVYATOBOR 1 (RS60S) 1 57187U 23091X 26038.30921329 .00013873 00000+0 57212-3 0 9992 2 57187 97.5271 101.5247 0009876 181.5356 178.5853 15.24136551144515 VIZARD-METEO (RS38S) 1 57189U 23091Z 26038.26340233 .00023056 00000+0 75627-3 0 9992 2 57189 97.5259 105.4699 0008256 166.4157 193.7307 15.31587574144773 NANOZOND 1 (RS49S) 1 57190U 23091AA 26038.32423530 .00157987 00000+0 16083-2 0 9994 2 57190 97.5155 116.3813 0003251 163.8622 196.2741 15.64621325145519 POLYTECH-UNIVERSE 3 (R*) 1 57191U 23091AB 26038.32272148 .00007742 00000+0 38616-3 0 9992 2 57191 97.5239 96.9555 0015114 217.0366 142.9826 15.17705504144248 UTMN 2 (RS27S) 1 57203U 23091AP 26038.27125740 .00018426 00000+0 66448-3 0 9990 2 57203 97.5261 103.9175 0008883 171.4724 188.6669 15.28548273144679 KUZGTU 1 (RS47S) 1 57217U 23091AV 26038.26476822 .00017630 00000+0 67420-3 0 9991 2 57217 97.5246 101.6170 0011596 189.1930 170.9098 15.26592422144535 SONATE-2 1 59112U 24043Q 26038.31899586 .00044167 00000+0 81353-3 0 9993 2 59112 97.5359 181.8542 0008390 324.0053 36.0631 15.49000399107720 MESAT1 1 60209U 24125G 26038.07733799 .00049837 00000+0 85728-3 0 9998 2 60209 97.2484 253.6540 0013096 344.6302 15.4551 15.50861288 89326 OOV-CUBE (TUBSAT-30) 1 60240U 24128F 26038.27475542 .00004059 00000+0 31336-3 0 9990 2 60240 61.9965 318.3394 0056596 106.0420 254.6914 15.02031036 86595 COLIBRI-S (RS67S) 1 61746U 24199M 26038.26324260 .00028799 00000+0 67470-3 0 9994 2 61746 97.3203 271.2975 0010973 40.1507 320.0549 15.41996950117359 HORS 3 (RS81S) 1 61753U 24199U 26038.31522065 .00041953 00000+0 84857-3 0 9996 2 61753 97.3172 272.2570 0009356 45.3864 314.8147 15.46293610117432 HORS 4 (RS82S) 1 61754U 24199V 26038.30476742 .00046521 00000+0 86530-3 0 9992 2 61754 97.3146 272.8340 0009313 44.4765 315.7232 15.48698690117476 HORIZON (RS59S) 1 61757U 24199Y 26038.27197848 .00122143 00000+0 13287-2 0 9991 2 61757 97.3135 275.8836 0007594 31.2476 328.9233 15.63015585117663 ARCTICSAT 1 (RS74S) 1 61762U 24199AD 26038.27927985 .00101230 00000+0 12342-2 0 9995 2 61762 97.3150 275.5732 0007642 28.0662 332.1005 15.60117587117647 SIT-2086 1 61764U 24199AF 26038.31658869 .00030742 00000+0 63014-3 0 9996 2 61764 97.3168 273.0142 0008621 29.7866 330.3873 15.45975356114322 RUZAEVKA 390 (RS44S) 1 61766U 24199AH 26036.28668939 .00313717 00000+0 17151-2 0 9997 2 61766 97.3049 276.2746 0005522 43.7248 316.4455 15.78991128114371 HYPERVIEW 1G (RS66S) 1 61772U 24199AP 26038.27136273 .00074176 00000+0 11361-2 0 9996 2 61772 97.3140 273.6337 0010764 40.9973 319.2088 15.54032547114373 ALTAIR (RS65S) 1 61779U 24199AW 26038.31565971 .00017572 00000+0 53036-3 0 9992 2 61779 97.3219 268.6100 0015242 56.3013 303.9681 15.34217869117182 ASRTU-1 (AO-123) 1 61781U 24199AY 26038.27798751 .00013699 00000+0 42482-3 0 9993 2 61781 97.3197 268.1498 0015799 57.5046 302.7721 15.33403740114005 TUSUR GO (RS78S) 1 61782U 24199AZ 26038.28857961 .00132559 00000+0 14448-2 0 9991 2 61782 97.3090 274.9214 0009112 41.1788 319.0156 15.62917575114464 SAMSAT-IONOSPHERE (RS7*) 1 61784U 24199BB 26038.29413940 .00043803 00000+0 85980-3 0 9992 2 61784 97.3164 271.9876 0012408 45.9572 314.2697 15.47121141117418 RTU MIREA 1 (RS51S) 1 61785U 24199BC 26038.26176650 .00050716 00000+0 94077-3 0 9992 2 61785 97.3158 272.3211 0011979 44.1280 316.0925 15.48725120114283 TEVEL2-4 1 63213U 25052D 26037.69832003 .00023931 00000+0 83540-3 0 9998 2 63213 97.4058 294.2254 0002171 160.8404 199.2918 15.29589533 50130 TEVEL2-5 1 63214U 25052E 26038.16496873 .00023979 00000+0 83920-3 0 9997 2 63214 97.4061 294.6685 0002171 161.7555 198.3764 15.29506293 50203 TEVEL2-6 1 63215U 25052F 26038.23937630 .00026918 00000+0 94251-3 0 9992 2 63215 97.4060 294.7291 0002257 164.3629 195.7682 15.29466368 50212 TEVEL2-1 1 63217U 25052H 26038.22964838 .00025678 00000+0 91006-3 0 9990 2 63217 97.4035 294.4808 0001740 180.2835 179.8404 15.29080878 50201 TEVEL2-3 1 63218U 25052J 26038.22788027 .00025343 00000+0 89740-3 0 9996 2 63218 97.4036 294.4885 0001728 180.0983 180.0257 15.29111327 50200 TEVEL2-2 1 63219U 25052K 26038.23033963 .00025205 00000+0 89337-3 0 9999 2 63219 97.4039 294.4820 0001679 181.1659 178.9577 15.29081981 50203 TEVEL2-9 1 63237U 25052AD 26037.59591267 .00022572 00000+0 84168-3 0 9994 2 63237 97.4097 293.4737 0004643 239.9340 120.1439 15.27427447 50065 TEVEL2-7 1 63238U 25052AE 26038.20574482 .00023388 00000+0 87635-3 0 9992 2 63238 97.4099 294.0402 0004900 234.2093 125.8691 15.27258788 50155 TEVEL2-8 1 63239U 25052AF 26038.14678824 .00021385 00000+0 80239-3 0 9999 2 63239 97.4099 293.9629 0004849 236.0393 124.0385 15.27232267 50144 HADES-ICM 1 63492U 25052BN 26036.66560114 .00141387 00000+0 25651-2 0 9998 2 63492 97.4003 296.1435 0003805 209.7437 150.3598 15.49070261 50176 INNOSAT 16 (RS92S7) 1 64878U 25155C 26038.24924645 .00010460 00000+0 43835-3 0 9992 2 64878 97.4417 6.0771 0008766 286.8394 73.1881 15.23675297 60871 GEOSCAN 6 (RS92S6) 1 64879U 25155D 26038.25440353 .00017207 00000+0 64821-3 0 9997 2 64879 97.4417 6.6987 0005794 281.0007 79.0580 15.27140865 60911 GEOSCAN 1 (RS92S1) 1 64880U 25155E 26038.29802798 .00017721 00000+0 66004-3 0 9994 2 64880 97.4417 6.7985 0005650 281.3985 78.6619 15.27511395 60920 239ALFEROV (RS61S) 1 64881U 25155F 26038.28603980 .00022095 00000+0 79054-3 0 9995 2 64881 97.4422 6.9933 0005155 281.6323 78.4338 15.28790297 60939 GEOSCAN 2 (RS92S2) 1 64890U 25155Q 26038.25094126 .00017825 00000+0 65790-3 0 9995 2 64890 97.4415 6.8486 0004989 262.3113 97.7560 15.27814693 60926 GEOSCAN 5 (RS92S5) 1 64891U 25155R 26038.30286780 .00021844 00000+0 77365-3 0 9998 2 64891 97.4416 7.0958 0004056 293.8475 66.2340 15.29131805 60948 GEOSCAN 4 (RS92S4) 1 64892U 25155S 26038.29717472 .00022593 00000+0 79780-3 0 9999 2 64892 97.4418 7.1089 0004048 294.8425 65.2394 15.29221584 60946 GEOSCAN 3 (RS92S3) 1 64893U 25155T 26038.29903713 .00027513 00000+0 93808-3 0 9999 2 64893 97.4412 7.2485 0003611 299.4825 60.6055 15.30324943 60951 INNOSAT 3 (RS92S0) 1 64894U 25155U 26038.29038633 .00045676 00000+0 13689-2 0 9998 2 64894 97.4388 7.6920 0002462 312.1945 47.9089 15.34353140 60984